UAL659 KLAX-PHNL

Flight info

Callsign UAL659
Flight time N/A
Altitude 32000
Route SUMMR2 DINTY DUETS R576 DADIE/N0474F340 R576 DENNS MAGGI3
Aircraft B77W/H-SDE1E2E3FGHIJ2J3J4J5M1RWXY/LB1D1

Departure

Time 2026-05-01 13:11
Airport Los Angeles International Airport (KLAX)

Arrival

Time N/A
Airport Daniel K. Inouye International Airport (PHNL)
Time Latitude Longitude Altitude Speed Heading
2026-05-01 12:27 33.94099 -118.41087 100 ft 0 kts 83°
2026-05-01 12:52 33.94099 -118.41088 99 ft 1 kts 83°
2026-05-01 12:53 33.94094 -118.41132 99 ft 3 kts 84°
2026-05-01 12:53 33.94093 -118.41156 98 ft 3 kts 92°
2026-05-01 12:53 33.94094 -118.41177 98 ft 3 kts 110°
2026-05-01 12:54 33.94099 -118.41191 98 ft 3 kts 142°
2026-05-01 12:54 33.94104 -118.41196 98 ft 0 kts 174°
2026-05-01 12:59 33.94090 -118.41194 98 ft 3 kts 174°
2026-05-01 13:00 33.94034 -118.41187 102 ft 6 kts 174°
2026-05-01 13:00 33.93991 -118.41181 101 ft 7 kts 174°
2026-05-01 13:01 33.93888 -118.41164 102 ft 8 kts 173°
2026-05-01 13:01 33.93833 -118.41157 105 ft 8 kts 174°
2026-05-01 13:01 33.93768 -118.41075 107 ft 8 kts 91°
2026-05-01 13:02 33.93776 -118.41000 106 ft 10 kts 83°
2026-05-01 13:07 33.94014 -118.38674 107 ft 17 kts 83°
2026-05-01 13:07 33.94026 -118.38544 108 ft 14 kts 83°
2026-05-01 13:07 33.94039 -118.38426 108 ft 14 kts 82°
2026-05-01 13:08 33.94009 -118.38341 111 ft 9 kts 150°
2026-05-01 13:08 33.93951 -118.38323 114 ft 9 kts 172°
2026-05-01 13:08 33.93890 -118.38313 111 ft 10 kts 172°
2026-05-01 13:08 33.93814 -118.38301 111 ft 11 kts 173°
2026-05-01 13:09 33.93742 -118.38324 112 ft 11 kts 230°
2026-05-01 13:09 33.93726 -118.38391 112 ft 0 kts 264°
2026-05-01 13:10 33.93716 -118.38511 112 ft 34 kts 264°
2026-05-01 13:10 33.93671 -118.38960 111 ft 73 kts 263°
2026-05-01 13:10 33.93581 -118.39810 112 ft 146 kts 263°
2026-05-01 13:11 33.93423 -118.41391 168 ft 229 kts 263°
2026-05-01 13:11 33.93197 -118.43492 823 ft 272 kts 263°
2026-05-01 13:11 33.92949 -118.45914 1796 ft 311 kts 263°
2026-05-01 13:11 33.92702 -118.48656 2885 ft 346 kts 265°
2026-05-01 13:12 33.92509 -118.51672 4012 ft 374 kts 267°
2026-05-01 13:12 33.92396 -118.54905 4932 ft 397 kts 269°
2026-05-01 13:12 33.92355 -118.58243 5784 ft 403 kts 270°
2026-05-01 13:12 33.92328 -118.61649 6599 ft 407 kts 269°
2026-05-01 13:13 33.92234 -118.65012 7529 ft 398 kts 266°
2026-05-01 13:13 33.92003 -118.68312 8611 ft 390 kts 264°
2026-05-01 13:13 33.91780 -118.71513 9338 ft 379 kts 267°
2026-05-01 13:13 33.91796 -118.74690 9678 ft 381 kts 273°
2026-05-01 13:14 33.92022 -118.77892 9858 ft 386 kts 274°
2026-05-01 13:14 33.92193 -118.81087 10002 ft 388 kts 271°
2026-05-01 13:14 33.92210 -118.84327 10117 ft 387 kts 269°
2026-05-01 13:14 33.92111 -118.87560 10492 ft 385 kts 267°
2026-05-01 13:15 33.92001 -118.90765 11509 ft 381 kts 270°
2026-05-01 13:15 33.92006 -118.93958 12425 ft 381 kts 272°
2026-05-01 13:15 33.92086 -118.97165 13210 ft 385 kts 274°
2026-05-01 13:15 33.92231 -119.00362 13877 ft 387 kts 280°
2026-05-01 13:16 33.93048 -119.03440 14352 ft 389 kts 301°
2026-05-01 13:16 33.94499 -119.06171 14998 ft 388 kts 304°
2026-05-01 13:16 33.95970 -119.08918 15731 ft 391 kts 304°
2026-05-01 13:17 34.00346 -119.17341 17903 ft 397 kts 305°
2026-05-01 13:17 34.02171 -119.19852 18388 ft 401 kts 322°
2026-05-01 13:18 34.06784 -119.23669 19348 ft 408 kts 325°
2026-05-01 13:18 34.09123 -119.25636 20009 ft 410 kts 324°
2026-05-01 13:18 34.11461 -119.27627 20646 ft 412 kts 324°
2026-05-01 13:18 34.13817 -119.29648 21229 ft 415 kts 324°
2026-05-01 13:19 34.16181 -119.31684 21784 ft 419 kts 324°
2026-05-01 13:19 34.18561 -119.33737 22343 ft 423 kts 323°
2026-05-01 13:19 34.23352 -119.37874 23443 ft 429 kts 323°
2026-05-01 13:20 34.25794 -119.39984 23930 ft 431 kts 323°
2026-05-01 13:20 34.28240 -119.42098 24417 ft 433 kts 323°
2026-05-01 13:20 34.30696 -119.44223 24913 ft 434 kts 323°
2026-05-01 13:21 34.35626 -119.48492 25879 ft 438 kts 322°
2026-05-01 13:21 34.37909 -119.50900 26180 ft 437 kts 309°
2026-05-01 13:21 34.39496 -119.54043 26517 ft 441 kts 293°
2026-05-01 13:21 34.40432 -119.57589 26999 ft 442 kts 283°
2026-05-01 13:22 34.40732 -119.61296 27464 ft 444 kts 269°
2026-05-01 13:22 34.40485 -119.65043 27775 ft 449 kts 267°
2026-05-01 13:22 34.40169 -119.68821 28100 ft 452 kts 266°
2026-05-01 13:22 34.39849 -119.72568 28490 ft 454 kts 266°
2026-05-01 13:23 34.39535 -119.76380 28930 ft 454 kts 267°
2026-05-01 13:23 34.39238 -119.80194 29490 ft 451 kts 267°
2026-05-01 13:23 34.38957 -119.83957 30106 ft 447 kts 268°
2026-05-01 13:23 34.38684 -119.87707 30604 ft 444 kts 268°
2026-05-01 13:24 34.38421 -119.91385 31033 ft 442 kts 267°
2026-05-01 13:24 34.38153 -119.95140 31431 ft 441 kts 267°
2026-05-01 13:24 34.37891 -119.98791 31828 ft 440 kts 267°
2026-05-01 13:25 34.37355 -120.06208 32017 ft 443 kts 267°
2026-05-01 13:25 34.36814 -120.13602 32021 ft 438 kts 267°
2026-05-01 13:26 34.36272 -120.20938 32035 ft 437 kts 266°
2026-05-01 13:26 34.35726 -120.28272 32035 ft 437 kts 266°
2026-05-01 13:27 34.35176 -120.35606 32040 ft 438 kts 266°
2026-05-01 13:27 34.34228 -120.46609 32122 ft 447 kts 259°
2026-05-01 13:28 34.31741 -120.53540 32552 ft 451 kts 246°
2026-05-01 13:28 34.30342 -120.56931 32943 ft 449 kts 246°
2026-05-01 13:29 34.27615 -120.63660 33791 ft 442 kts 247°
2026-05-01 13:29 34.24955 -120.70336 34395 ft 440 kts 247°
2026-05-01 13:30 34.19673 -120.83647 35333 ft 438 kts 247°
2026-05-01 13:31 34.17050 -120.90233 35762 ft 437 kts 246°
2026-05-01 13:31 34.13086 -121.00161 36030 ft 438 kts 246°
2026-05-01 13:32 34.10433 -121.06785 36045 ft 437 kts 246°
2026-05-01 13:33 34.03854 -121.23159 36049 ft 433 kts 246°
2026-05-01 13:34 33.98566 -121.36265 36063 ft 434 kts 246°
2026-05-01 13:35 33.94594 -121.46078 36063 ft 436 kts 246°
2026-05-01 13:36 33.90598 -121.55919 36067 ft 437 kts 246°
2026-05-01 13:36 33.86570 -121.65809 36064 ft 439 kts 246°
2026-05-01 13:37 33.83891 -121.72373 36068 ft 439 kts 246°
2026-05-01 13:37 33.81191 -121.78974 36067 ft 439 kts 245°
2026-05-01 13:38 33.77139 -121.88857 36074 ft 439 kts 245°
2026-05-01 13:39 33.74433 -121.95441 36071 ft 439 kts 245°
2026-05-01 13:39 33.71736 -122.01990 36076 ft 439 kts 245°
2026-05-01 13:40 33.69028 -122.08556 36076 ft 439 kts 245°
2026-05-01 13:40 33.66312 -122.15125 36077 ft 439 kts 245°
2026-05-01 13:41 33.63597 -122.21683 36079 ft 439 kts 245°
2026-05-01 13:41 33.60877 -122.28239 36082 ft 439 kts 245°
2026-05-01 13:42 33.58154 -122.34790 36086 ft 439 kts 245°
2026-05-01 13:42 33.55426 -122.41341 36084 ft 439 kts 245°
2026-05-01 13:43 33.52711 -122.47848 36087 ft 439 kts 245°
2026-05-01 13:43 33.49976 -122.54395 36091 ft 439 kts 245°
2026-05-01 13:44 33.47543 -122.61082 36086 ft 437 kts 255°
2026-05-01 13:44 33.46114 -122.68155 36096 ft 437 kts 258°
2026-05-01 13:45 33.44777 -122.75215 36097 ft 437 kts 257°
2026-05-01 13:45 33.43368 -122.82306 36099 ft 438 kts 257°
2026-05-01 13:46 33.41912 -122.89384 36101 ft 438 kts 257°
2026-05-01 13:46 33.40438 -122.96462 36099 ft 438 kts 256°
2026-05-01 13:47 33.38958 -123.03550 36102 ft 439 kts 256°
2026-05-01 13:47 33.37480 -123.10607 36108 ft 439 kts 256°
2026-05-01 13:48 33.35994 -123.17688 36110 ft 439 kts 256°
2026-05-01 13:48 33.34502 -123.24780 36109 ft 439 kts 256°
2026-05-01 13:49 33.33008 -123.31855 36116 ft 439 kts 256°
2026-05-01 13:49 33.31510 -123.38928 36109 ft 439 kts 256°
2026-05-01 13:50 33.30008 -123.46003 36114 ft 439 kts 256°
2026-05-01 13:50 33.28508 -123.53045 36116 ft 439 kts 256°
2026-05-01 13:51 33.26999 -123.60108 36118 ft 439 kts 256°
2026-05-01 13:51 33.25484 -123.67178 36122 ft 439 kts 256°
2026-05-01 13:52 33.23963 -123.74252 36121 ft 439 kts 256°
2026-05-01 13:52 33.22440 -123.81318 36125 ft 439 kts 256°
2026-05-01 13:53 33.21169 -123.87195 36126 ft 439 kts 256°
2026-05-01 13:53 33.18880 -123.97748 36128 ft 439 kts 256°
2026-05-01 13:54 33.17345 -124.04800 36130 ft 439 kts 256°
2026-05-01 13:54 33.15804 -124.11858 36130 ft 439 kts 256°
2026-05-01 13:55 33.14260 -124.18910 36134 ft 439 kts 256°
2026-05-01 13:55 33.12712 -124.25958 36136 ft 439 kts 256°
2026-05-01 13:56 33.11159 -124.33010 36134 ft 439 kts 256°
2026-05-01 13:56 33.09604 -124.40050 36138 ft 439 kts 256°
2026-05-01 13:57 33.08052 -124.47058 36141 ft 439 kts 256°
2026-05-01 13:57 33.06487 -124.54102 36144 ft 439 kts 256°
2026-05-01 13:58 33.04911 -124.61143 36145 ft 439 kts 255°
2026-05-01 13:58 33.03334 -124.68173 36144 ft 439 kts 255°
2026-05-01 13:59 33.01763 -124.75162 36146 ft 439 kts 255°
2026-05-01 13:59 33.00178 -124.82192 36151 ft 439 kts 255°
2026-05-01 14:00 32.98589 -124.89222 36150 ft 439 kts 255°
2026-05-01 14:00 32.97001 -124.96231 36157 ft 438 kts 255°
2026-05-01 14:01 32.95415 -125.03207 36161 ft 438 kts 255°
2026-05-01 14:01 32.93816 -125.10224 36154 ft 439 kts 255°
2026-05-01 14:02 32.92215 -125.17227 36155 ft 438 kts 255°
2026-05-01 14:02 32.90608 -125.24236 36157 ft 438 kts 255°
2026-05-01 14:03 32.89008 -125.31198 36160 ft 438 kts 255°
2026-05-01 14:03 32.87394 -125.38202 36165 ft 438 kts 255°
2026-05-01 14:04 32.85776 -125.45203 36167 ft 438 kts 255°
2026-05-01 14:04 32.84155 -125.52198 36169 ft 438 kts 255°
2026-05-01 14:05 32.82538 -125.59154 36170 ft 438 kts 255°
2026-05-01 14:05 32.80909 -125.66144 36168 ft 438 kts 255°
2026-05-01 14:06 32.79276 -125.73130 36168 ft 438 kts 255°
2026-05-01 14:06 32.77638 -125.80123 36170 ft 438 kts 255°
2026-05-01 14:07 32.75996 -125.87110 36178 ft 438 kts 255°
2026-05-01 14:08 32.73537 -125.97540 36181 ft 438 kts 254°
2026-05-01 14:08 32.71887 -126.04513 36181 ft 438 kts 254°
2026-05-01 14:09 32.70231 -126.11492 36183 ft 438 kts 254°
2026-05-01 14:09 32.68572 -126.18469 36184 ft 438 kts 254°
2026-05-01 14:10 32.66920 -126.25393 36183 ft 438 kts 254°
2026-05-01 14:10 32.65256 -126.32352 36187 ft 438 kts 254°
2026-05-01 14:11 32.63589 -126.39304 36187 ft 438 kts 254°
2026-05-01 14:11 32.61080 -126.49732 36193 ft 438 kts 254°
2026-05-01 14:12 32.59403 -126.56680 36196 ft 438 kts 254°
2026-05-01 14:12 32.57732 -126.63585 36196 ft 438 kts 254°
2026-05-01 14:13 32.56320 -126.69404 36200 ft 438 kts 254°
2026-05-01 14:13 32.54356 -126.77478 36198 ft 438 kts 254°
2026-05-01 14:14 32.52664 -126.84414 36200 ft 438 kts 254°
2026-05-01 14:14 32.50980 -126.91301 36202 ft 438 kts 254°
2026-05-01 14:15 32.49278 -126.98243 36202 ft 438 kts 254°
2026-05-01 14:15 32.47573 -127.05175 36204 ft 438 kts 254°
2026-05-01 14:16 32.45866 -127.12100 36203 ft 438 kts 254°
2026-05-01 14:16 32.44156 -127.19021 36205 ft 438 kts 254°
2026-05-01 14:17 32.42453 -127.25895 36210 ft 438 kts 254°
2026-05-01 14:17 32.40734 -127.32813 36208 ft 438 kts 254°
2026-05-01 14:18 32.39011 -127.39731 36212 ft 438 kts 254°
2026-05-01 14:18 32.37575 -127.45482 36212 ft 438 kts 254°
2026-05-01 14:19 32.35553 -127.53561 36214 ft 438 kts 253°
2026-05-01 14:19 32.33819 -127.60470 36216 ft 438 kts 253°
2026-05-01 14:20 32.31220 -127.70791 36218 ft 438 kts 253°
2026-05-01 14:21 32.29475 -127.77699 36219 ft 438 kts 253°
2026-05-01 14:21 32.27728 -127.84597 36218 ft 438 kts 253°
2026-05-01 14:22 32.25103 -127.94931 36222 ft 438 kts 253°
2026-05-01 14:22 32.23346 -128.01829 36224 ft 437 kts 253°
2026-05-01 14:23 32.21599 -128.08668 36225 ft 437 kts 253°
2026-05-01 14:23 32.19837 -128.15545 36222 ft 437 kts 253°
2026-05-01 14:24 32.18074 -128.22414 36224 ft 437 kts 253°
2026-05-01 14:24 32.16301 -128.29299 36224 ft 437 kts 253°
2026-05-01 14:25 32.14531 -128.36160 36226 ft 437 kts 253°
2026-05-01 14:25 32.12767 -128.42979 36225 ft 437 kts 253°
2026-05-01 14:26 32.10096 -128.53273 36230 ft 437 kts 253°
2026-05-01 14:27 32.08311 -128.60131 36231 ft 437 kts 253°
2026-05-01 14:27 32.06523 -128.66985 36232 ft 437 kts 253°
2026-05-01 14:28 32.03845 -128.77217 36230 ft 437 kts 253°
2026-05-01 14:28 32.02051 -128.84053 36230 ft 437 kts 253°
2026-05-01 14:29 32.00252 -128.90887 36236 ft 437 kts 253°
2026-05-01 14:30 31.96642 -129.04559 36238 ft 436 kts 253°
2026-05-01 14:31 31.93936 -129.14760 36237 ft 436 kts 253°
2026-05-01 14:31 31.92120 -129.21587 36240 ft 436 kts 253°
2026-05-01 14:32 31.90301 -129.28410 36242 ft 436 kts 253°
2026-05-01 14:32 31.88477 -129.35234 36246 ft 437 kts 253°
2026-05-01 14:33 31.86650 -129.42050 36243 ft 436 kts 253°
2026-05-01 14:33 31.84832 -129.48818 36245 ft 436 kts 253°
2026-05-01 14:34 31.82999 -129.55627 36241 ft 436 kts 253°
2026-05-01 14:34 31.81162 -129.62434 36244 ft 436 kts 252°
2026-05-01 14:35 31.79322 -129.69237 36246 ft 436 kts 252°
2026-05-01 14:35 31.77477 -129.76044 36248 ft 436 kts 252°
2026-05-01 14:36 31.75639 -129.82806 36249 ft 436 kts 252°
2026-05-01 14:36 31.73790 -129.89595 36249 ft 436 kts 252°
2026-05-01 14:37 31.71935 -129.96387 36248 ft 436 kts 252°
2026-05-01 14:37 31.70079 -130.03169 36250 ft 436 kts 252°
2026-05-01 14:38 31.68219 -130.09949 36251 ft 436 kts 252°
2026-05-01 14:38 31.66366 -130.16689 36252 ft 436 kts 252°
2026-05-01 14:39 31.64501 -130.23456 36255 ft 436 kts 252°
2026-05-01 14:39 31.62945 -130.29087 36259 ft 436 kts 252°
2026-05-01 14:40 31.61073 -130.35851 36255 ft 436 kts 252°
2026-05-01 14:40 31.59199 -130.42608 36256 ft 435 kts 252°
2026-05-01 14:41 31.57319 -130.49368 36254 ft 435 kts 252°
2026-05-01 14:41 31.55439 -130.56116 36257 ft 435 kts 252°
2026-05-01 14:42 31.53553 -130.62867 36258 ft 435 kts 252°
2026-05-01 14:42 31.51663 -130.69618 36262 ft 435 kts 252°
2026-05-01 14:43 31.49782 -130.76322 36263 ft 435 kts 252°
2026-05-01 14:43 31.47884 -130.83073 36263 ft 435 kts 252°
2026-05-01 14:44 31.45985 -130.89808 36264 ft 435 kts 252°
2026-05-01 14:44 31.43132 -130.99903 36268 ft 435 kts 252°
2026-05-01 14:45 31.40283 -131.09948 36268 ft 434 kts 252°
2026-05-01 14:46 31.38373 -131.16662 36269 ft 434 kts 251°
2026-05-01 14:46 31.35502 -131.26731 36272 ft 434 kts 251°
2026-05-01 14:47 31.33596 -131.33392 36271 ft 434 kts 251°
2026-05-01 14:48 31.30715 -131.43439 36276 ft 433 kts 251°
2026-05-01 14:48 31.27831 -131.53461 36275 ft 433 kts 251°
2026-05-01 14:49 31.23989 -131.66762 36275 ft 433 kts 251°
2026-05-01 14:50 31.20127 -131.80076 36276 ft 432 kts 251°
2026-05-01 14:51 31.17222 -131.90052 36279 ft 432 kts 251°
2026-05-01 14:52 31.14326 -131.99965 36276 ft 432 kts 251°
2026-05-01 14:53 31.11411 -132.09916 36278 ft 431 kts 251°
2026-05-01 14:53 31.09462 -132.16544 36278 ft 431 kts 251°
2026-05-01 14:54 31.07507 -132.23170 36278 ft 431 kts 251°
2026-05-01 14:54 31.05551 -132.29788 36279 ft 431 kts 251°
2026-05-01 14:55 31.03608 -132.36353 36281 ft 431 kts 251°
2026-05-01 14:55 31.01648 -132.42961 36279 ft 431 kts 250°
2026-05-01 14:56 30.99685 -132.49566 36279 ft 431 kts 250°
2026-05-01 14:56 30.97728 -132.56136 36281 ft 431 kts 250°
2026-05-01 14:57 30.95759 -132.62731 36281 ft 431 kts 250°
2026-05-01 14:57 30.92800 -132.72619 36284 ft 431 kts 250°
2026-05-01 14:58 30.90822 -132.79212 36284 ft 431 kts 250°
2026-05-01 14:58 30.88855 -132.85753 36284 ft 431 kts 250°
2026-05-01 14:59 30.86874 -132.92330 36287 ft 431 kts 250°
2026-05-01 14:59 30.84881 -132.98930 36286 ft 430 kts 250°
2026-05-01 15:00 30.81905 -133.08760 36288 ft 430 kts 250°
2026-05-01 15:01 30.79910 -133.15332 36292 ft 430 kts 250°
2026-05-01 15:01 30.77915 -133.21890 36289 ft 430 kts 250°
2026-05-01 15:02 30.75931 -133.28401 36289 ft 430 kts 250°
2026-05-01 15:02 30.73929 -133.34956 36292 ft 430 kts 250°
2026-05-01 15:03 30.71925 -133.41505 36289 ft 430 kts 250°
2026-05-01 15:03 30.69914 -133.48061 36291 ft 429 kts 250°
2026-05-01 15:04 30.67908 -133.54591 36291 ft 429 kts 250°
2026-05-01 15:04 30.65894 -133.61130 36290 ft 429 kts 250°
2026-05-01 15:05 30.63892 -133.67619 36290 ft 429 kts 250°
2026-05-01 15:05 30.61874 -133.74147 36290 ft 429 kts 250°
2026-05-01 15:06 30.59853 -133.80669 36292 ft 429 kts 250°
2026-05-01 15:06 30.57830 -133.87187 36291 ft 429 kts 250°
2026-05-01 15:07 30.55803 -133.93703 36294 ft 429 kts 250°
2026-05-01 15:07 30.53774 -134.00212 36294 ft 428 kts 250°
2026-05-01 15:08 30.51747 -134.06702 36293 ft 428 kts 250°
2026-05-01 15:08 30.49728 -134.13155 36293 ft 428 kts 249°
2026-05-01 15:09 30.47694 -134.19640 36292 ft 428 kts 249°
2026-05-01 15:09 30.45655 -134.26129 36294 ft 427 kts 249°
2026-05-01 15:10 30.43614 -134.32614 36294 ft 427 kts 249°
2026-05-01 15:10 30.40562 -134.42284 36293 ft 427 kts 249°
2026-05-01 15:11 30.37492 -134.51983 36296 ft 428 kts 249°
2026-05-01 15:12 30.35439 -134.58452 36296 ft 428 kts 249°
2026-05-01 15:12 30.32352 -134.68157 36298 ft 428 kts 249°
2026-05-01 15:14 30.27202 -134.84286 36296 ft 428 kts 249°
2026-05-01 15:14 30.24097 -134.93968 36299 ft 428 kts 249°
2026-05-01 15:15 30.19943 -135.06882 36302 ft 428 kts 249°
2026-05-01 15:16 30.15781 -135.19770 36304 ft 427 kts 249°
2026-05-01 15:18 30.10580 -135.35807 36306 ft 427 kts 249°
2026-05-01 15:19 30.06402 -135.48632 36302 ft 426 kts 248°
2026-05-01 15:19 30.03268 -135.58221 36302 ft 426 kts 248°
2026-05-01 15:20 30.00114 -135.67843 36308 ft 427 kts 248°
2026-05-01 15:21 29.98022 -135.74209 36305 ft 427 kts 248°
2026-05-01 15:21 29.95912 -135.80622 36303 ft 427 kts 248°
2026-05-01 15:22 29.92739 -135.90239 36306 ft 428 kts 248°
2026-05-01 15:22 29.90614 -135.96661 36307 ft 428 kts 248°
2026-05-01 15:23 29.88489 -136.03075 36305 ft 428 kts 248°
2026-05-01 15:23 29.86359 -136.09493 36303 ft 429 kts 248°
2026-05-01 15:24 29.84585 -136.14827 36304 ft 429 kts 248°
2026-05-01 15:24 29.82448 -136.21241 36307 ft 429 kts 248°
2026-05-01 15:25 29.80306 -136.27658 36307 ft 429 kts 248°
2026-05-01 15:25 29.78160 -136.34076 36304 ft 429 kts 248°
2026-05-01 15:26 29.76027 -136.40444 36304 ft 429 kts 248°
2026-05-01 15:26 29.73875 -136.46857 36303 ft 429 kts 248°
2026-05-01 15:27 29.71718 -136.53269 36302 ft 429 kts 247°
2026-05-01 15:28 29.68474 -136.62894 36301 ft 430 kts 247°
2026-05-01 15:28 29.66321 -136.69270 36302 ft 430 kts 247°
2026-05-01 15:29 29.63063 -136.78891 36301 ft 430 kts 247°
2026-05-01 15:30 29.58715 -136.91691 36303 ft 431 kts 247°
2026-05-01 15:31 29.52138 -137.10962 36307 ft 432 kts 247°
2026-05-01 15:32 29.47732 -137.23815 36306 ft 432 kts 247°
2026-05-01 15:34 29.41113 -137.43033 36305 ft 432 kts 246°